Find Starlink 31619

NORAD ID: 59531 Int'l Des: 2024-073 Owner: SPXS Country: US Constellation: starlink operational
LEOCIRCULAR

リアルタイム位置

3D地球を読み込み中...

Starlink 31619について

説明を読み込み中...

次回通過

Passes for default location (London). Set your location on the main map for personalized predictions.

高度履歴

Loading altitude history...

軌道要素

1 59531U 24073W 26125.68306810 .00002146 00000-0 87482-4 0 9993
2 59531 43.0018 356.0113 0001096 264.4553 95.6173 15.27583954116014
Epoch: May 5, 2026 • Age: 11 hours

現在のステータス

高度 495.1 km
速度 7.62 km/s
衛星直下点 -41.81°S, 11.34°E
打ち上げ日 Apr 17, 2024
運用期間 2 years
タイプ internet

技術仕様

分類 Payload
質量 730.00 kg
乾燥質量 700.00 kg
総質量 730.00 kg
長さ 0.30 m
直径 4.10 m
スパン 29.00 m
形状 Box + pan
製造者 SPXS
バスタイプ Starlink V2M
フェーズステータス In Orbit
所有者/国 SPXS/US

Most Searched